TimeEST,TemperatureF,Dew PointF,Humidity,Sea Level PressureIn,VisibilityMPH,Wind Direction,Wind SpeedMPH,Gust SpeedMPH,PrecipitationIn,Events,Conditions,WindDirDegrees,DateUTC
12:15 AM,55.4,55.4,100,30.07,7.0,SW,15.0,21.9,0.07,Rain,Light Rain,220,2013-12-06 05:15:00
12:35 AM,57.2,57.2,100,30.05,10.0,SW,13.8,25.3,0.13,Rain,Light Rain,220,2013-12-06 05:35:00
12:55 AM,57.2,57.2,100,30.04,10.0,SW,13.8,20.7,N/A,,Overcast,220,2013-12-06 05:55:00
1:15 AM,57.2,57.2,100,30.04,0.2,SSW,16.1,23.0,N/A,Fog,Fog,200,2013-12-06 06:15:00
6:35 AM,57.2,57.2,100,30.04,0.2,West,12.7,-,N/A,Rain,Rain,260,2013-12-06 11:35:00
6:55 AM,55.4,55.4,100,30.05,0.2,West,10.4,-,N/A,Rain,Rain,260,2013-12-06 11:55:00
7:15 AM,53.6,53.6,100,30.05,0.2,West,10.4,-,N/A,Rain,Rain,280,2013-12-06 12:15:00
7:35 AM,51.8,51.8,100,30.05,0.2,West,9.2,-,N/A,Rain,Rain,280,2013-12-06 12:35:00
7:55 AM,51.8,51.8,100,30.08,0.2,WSW,8.1,-,N/A,Rain,Rain,250,2013-12-06 12:55:00
8:15 AM,51.8,51.8,100,30.07,0.2,WSW,8.1,-,N/A,Rain,Light Rain,240,2013-12-06 13:15:00
8:35 AM,51.8,51.8,100,30.09,0.2,WSW,11.5,-,0.03,Rain,Rain,250,2013-12-06 13:35:00
8:55 AM,50.0,50.0,100,30.12,0.2,WNW,16.1,27.6,0.17,Rain,Heavy Rain,290,2013-12-06 13:55:00
9:15 AM,50.0,50.0,100,30.12,0.8,West,15.0,19.6,0.35,Rain,Heavy Rain,280,2013-12-06 14:15:00
9:35 AM,51.8,51.8,100,30.11,1.8,West,20.7,32.2,0.52,Rain,Rain,260,2013-12-06 14:35:00
9:55 AM,53.6,53.6,100,30.09,10.0,WSW,18.4,-,0.01,Rain,Light Rain,250,2013-12-06 14:55:00
10:15 AM,53.6,53.6,100,30.10,10.0,WSW,16.1,21.9,0.01,,Light Drizzle,240,2013-12-06 15:15:00
10:35 AM,53.6,53.6,100,30.10,10.0,WSW,11.5,-,0.01,,Overcast,240,2013-12-06 15:35:00
10:55 AM,53.6,53.6,100,30.10,5.0,WSW,12.7,-,0.05,Rain,Light Rain,240,2013-12-06 15:55:00
11:15 AM,55.4,55.4,100,30.08,7.0,WSW,18.4,23.0,0.12,Rain,Light Rain,240,2013-12-06 16:15:00
11:35 AM,55.4,55.4,100,30.07,10.0,WSW,16.1,21.9,0.13,,Overcast,250,2013-12-06 16:35:00
11:55 AM,55.4,55.4,100,30.07,10.0,WSW,15.0,21.9,N/A,,Overcast,240,2013-12-06 16:55:00
12:15 PM,55.4,55.4,100,30.06,5.0,WSW,12.7,-,N/A,,Overcast,250,2013-12-06 17:15:00
1:35 PM,57.2,57.2,100,30.03,7.0,South,8.1,-,0.01,,Drizzle,190,2013-12-06 18:35:00
1:55 PM,57.2,57.2,100,30.01,0.2,South,8.1,-,N/A,Rain,Light Rain,190,2013-12-06 18:55:00
2:15 PM,57.2,57.2,100,30.01,0.2,South,8.1,-,N/A,Rain,Rain,190,2013-12-06 19:15:00
2:35 PM,55.4,55.4,100,30.00,0.2,South,10.4,16.1,N/A,Rain,Rain,180,2013-12-06 19:35:00
2:55 PM,57.2,57.2,100,30.00,0.2,SSW,12.7,-,N/A,Rain,Rain,200,2013-12-06 19:55:00
3:15 PM,57.2,57.2,100,30.00,0.2,South,12.7,18.4,N/A,Rain,Rain,190,2013-12-06 20:15:00
3:35 PM,51.8,51.8,100,29.99,0.2,SSW,15.0,24.2,0.03,Rain,Rain,210,2013-12-06 20:35:00
3:55 PM,57.2,57.2,100,29.99,0.2,South,11.5,19.6,N/A,Fog,Fog,180,2013-12-06 20:55:00
4:15 PM,57.2,57.2,100,29.99,0.2,South,12.7,19.6,N/A,Rain,Light Rain,180,2013-12-06 21:15:00
4:35 PM,57.2,57.2,100,29.99,0.2,South,11.5,17.3,0.01,Rain,Rain,170,2013-12-06 21:35:00
4:55 PM,57.2,57.2,100,30.00,0.2,South,13.8,18.4,N/A,Rain,Rain,180,2013-12-06 21:55:00
5:35 PM,57.2,57.2,100,30.01,0.2,SSE,12.7,20.7,0.01,Fog,Fog,160,2013-12-06 22:35:00
6:55 PM,53.6,53.6,100,30.04,0.2,WNW,5.8,19.6,N/A,Fog,Fog,300,2013-12-06 23:55:00
7:15 PM,51.8,51.8,100,30.01,0.2,South,5.8,-,N/A,Rain,Light Rain,170,2013-12-07 00:15:00
7:35 PM,42.8,42.8,100,30.07,0.2,NNW,9.2,-,0.09,Rain,Rain,340,2013-12-07 00:35:00
7:55 PM,44.6,44.6,100,30.06,0.8,NW,6.9,-,0.05,Rain,Rain,310,2013-12-07 00:55:00
8:15 PM,46.4,46.4,100,30.07,10.0,West,6.9,-,0.12,Rain,Light Rain,260,2013-12-07 01:15:00
8:35 PM,44.6,44.6,100,30.09,0.5,WNW,9.2,-,0.27,Rain,Heavy Rain,290,2013-12-07 01:35:00
8:55 PM,44.6,44.6,100,30.09,0.2,West,6.9,-,0.03,Rain,Rain,260,2013-12-07 01:55:00
9:15 PM,46.4,46.4,100,30.06,5.0,West,8.1,-,0.07,Rain,Light Rain,260,2013-12-07 02:15:00
9:35 PM,44.6,44.6,100,30.07,0.2,WNW,5.8,-,0.07,Rain,Light Rain,290,2013-12-07 02:35:00
9:55 PM,42.8,42.8,100,30.08,0.2,Calm,Calm,-,0.01,Rain,Light Rain,0,2013-12-07 02:55:00
10:15 PM,42.8,42.8,100,30.08,0.2,West,5.8,-,0.01,Rain,Light Rain,280,2013-12-07 03:15:00
10:35 PM,42.8,42.8,100,30.10,0.2,West,10.4,-,0.05,Rain,Rain,280,2013-12-07 03:35:00
10:55 PM,41.0,41.0,100,30.10,0.2,WNW,5.8,-,0.05,Rain,Heavy Rain,300,2013-12-07 03:55:00
11:15 PM,39.2,39.2,100,30.08,0.2,Calm,Calm,-,0.08,Rain,Light Rain,0,2013-12-07 04:15:00
11:35 PM,39.2,39.2,100,30.09,0.5,WNW,3.5,-,0.09,Rain,Light Rain,300,2013-12-07 04:35:00
11:55 PM,39.2,39.2,100,30.09,0.2,WNW,3.5,-,0.01,Rain,Light Rain,290,2013-12-07 04:55:00